Home   Weather   Kobe   Past weeks

Flag for Japan Past Weather in Kobe, Japan — Yesterday and Last 2 Weeks

Now
59 °F

Passing clouds.


Feels Like: 57 °F
Forecast: 48 / 68 °F
Wind: 10 mph from East

Location: Osaka International Airport

Current Time: Apr 24, 2017 at 8:55:00 am

Latest Report: Apr 24, 2017 at 8:00 am


Visibility: N/A

Pressure: 30.24 "Hg

Humidity: 51%

Dew Point: 41 °F

Location of KobeLocation

Past Weather in Kobe — Graph

°F

Kobe Temperature Yesterday

Maximum temperature yesterday: 70 °F (at 2:00 pm)
Minimum temperature yesterday: 45 °F (at 5:00 am)
Average temperature yesterday: 61 °F

High & Low Weather Summary for the Past Weeks

 TemperatureHumidityPressure
High75 °F (Apr 16, 1:00 pm)100% (Apr 17, 4:00 pm)30.24 "Hg (Apr 17, 4:00 pm)
Low41 °F (Apr 13, 5:00 am)20% (Apr 14, 3:00 pm)29.36 "Hg (Apr 11, 3:00 pm)
Average61 °F56%29.83 "Hg
* Reported Apr 9 7:00 am — Apr 24 7:00 am, Kobe, Weather by CustomWeather, © 2017

Note: Actual official high and low records may vary slightly from our data, if they occured in-between our weather recording intervals... More about our weather records

Advertising

Kobe Weather History for the Previous 24 Hours

Scroll right to see more
 ConditionsComfort  
Time TempWeatherWind HumidityBarometerVisibility
7:00 am
Mon, Apr 24
52 °FPassing clouds.6 mph58%30.24 "HgN/A
6:00 am48 °FPassing clouds.3 mph66%30.24 "HgN/A
5:00 am45 °FPassing clouds.2 mph71%30.21 "HgN/A
8:00 pm
Sun, Apr 23
57 °FClear.10 mph39%30.09 "Hg10 mi
7:00 pm61 °FPassing clouds.13 mph31%30.07 "HgN/A
6:00 pm64 °FPassing clouds.14 mph28%30.04 "HgN/A
5:00 pm68 °FPassing clouds.10 mph23%30.01 "HgN/A
4:00 pm70 °FPassing clouds.12 mph21%30.01 "HgN/A
3:00 pm70 °FPassing clouds.10 mph21%30.01 "HgN/A
2:00 pm70 °FPassing clouds.13 mph25%30.01 "HgN/A
1:00 pm68 °FPassing clouds.9 mph26%30.01 "HgN/A
12:00 pm66 °FPassing clouds.12 mph28%30.04 "HgN/A
11:00 am64 °FPassing clouds.10 mph34%30.04 "HgN/A
10:00 am61 °FPassing clouds.12 mph39%30.07 "HgN/A
9:00 am59 °FPassing clouds.8 mph39%30.04 "HgN/A
8:00 am54 °FPassing clouds.3 mph54%30.04 "HgN/A
Weather by CustomWeather, © 2017

See weather overviewHow to use our weather pages